Time,TemperatureF,DewpointF,PressureIn,WindDirection,WindDirectionDegrees,WindSpeedMPH,WindSpeedGustMPH,Humidity,HourlyPrecipIn,Conditions,Clouds,dailyrainin,SoftwareType,DateUTC
2013-03-02 00:00:00,41.6,35.6,30.15,North,32767,0.0,0.0,79,0.00,,,0.00,Wunderground v.1.15,2013-03-02 06:00:00,
2013-03-02 00:05:00,41.5,35.5,30.15,North,32767,0.0,0.0,79,0.00,,,0.00,Wunderground v.1.15,2013-03-02 06:05:00,
2013-03-02 00:10:00,41.4,35.4,30.15,North,32767,0.0,0.0,79,0.00,,,0.00,Wunderground v.1.15,2013-03-02 06:10:00,
2013-03-02 00:15:00,41.3,35.6,30.15,North,32767,0.0,0.0,80,0.00,,,0.00,Wunderground v.1.15,2013-03-02 06:15:00,
2013-03-02 00:20:00,41.1,35.7,30.15,North,32767,0.0,0.0,81,0.00,,,0.00,Wunderground v.1.15,2013-03-02 06:20:00,
2013-03-02 00:25:00,41.0,35.6,30.15,North,32767,0.0,0.0,81,0.00,,,0.00,Wunderground v.1.15,2013-03-02 06:25:00,
2013-03-02 00:35:00,40.8,35.4,30.15,North,32767,0.0,0.0,81,0.00,,,0.00,Wunderground v.1.15,2013-03-02 06:35:00,
2013-03-02 00:40:00,40.7,35.3,30.15,North,32767,0.0,0.0,81,0.00,,,0.00,Wunderground v.1.15,2013-03-02 06:40:00,
2013-03-02 00:45:00,40.7,35.3,30.15,North,32767,0.0,0.0,81,0.00,,,0.00,Wunderground v.1.15,2013-03-02 06:45:00,
2013-03-02 00:50:00,40.5,35.1,30.15,North,32767,0.0,0.0,81,0.00,,,0.00,Wunderground v.1.15,2013-03-02 06:50:00,
2013-03-02 00:55:00,40.4,35.0,30.14,North,32767,0.0,0.0,81,0.00,,,0.00,Wunderground v.1.15,2013-03-02 06:55:00,
2013-03-02 01:00:00,40.2,34.8,30.14,North,32767,0.0,0.0,81,0.00,,,0.00,Wunderground v.1.15,2013-03-02 07:00:00,
2013-03-02 01:05:00,40.0,34.9,30.14,North,32767,0.0,0.0,82,0.00,,,0.00,Wunderground v.1.15,2013-03-02 07:05:00,
2013-03-02 01:15:00,39.7,34.7,30.14,North,32767,0.0,0.0,82,0.00,,,0.00,Wunderground v.1.15,2013-03-02 07:15:00,
2013-03-02 01:20:00,39.6,34.6,30.14,North,32767,0.0,0.0,82,0.00,,,0.00,Wunderground v.1.15,2013-03-02 07:20:00,
2013-03-02 01:25:00,39.5,34.5,30.14,North,32767,0.0,0.0,82,0.00,,,0.00,Wunderground v.1.15,2013-03-02 07:25:00,
2013-03-02 01:30:00,39.3,34.3,30.14,North,32767,0.0,0.0,82,0.00,,,0.00,Wunderground v.1.15,2013-03-02 07:30:00,
2013-03-02 01:40:00,39.1,34.4,30.14,North,32767,0.0,0.0,83,0.00,,,0.00,Wunderground v.1.15,2013-03-02 07:40:00,
2013-03-02 01:45:00,39.0,34.6,30.14,North,32767,0.0,0.0,84,0.00,,,0.00,Wunderground v.1.15,2013-03-02 07:45:00,
2013-03-02 01:50:00,38.8,34.4,30.14,North,32767,0.0,0.0,84,0.00,,,0.00,Wunderground v.1.15,2013-03-02 07:50:00,
2013-03-02 01:55:00,38.8,34.1,30.13,North,32767,0.0,0.0,83,0.00,,,0.00,Wunderground v.1.15,2013-03-02 07:55:00,
2013-03-02 02:05:00,38.8,34.1,30.13,North,32767,0.0,0.0,83,0.00,,,0.00,Wunderground v.1.15,2013-03-02 08:05:00,
2013-03-02 02:10:00,38.8,33.8,30.13,North,32767,0.0,0.0,82,0.00,,,0.00,Wunderground v.1.15,2013-03-02 08:10:00,
2013-03-02 02:20:00,38.7,33.4,30.12,North,32767,0.0,0.0,81,0.00,,,0.00,Wunderground v.1.15,2013-03-02 08:20:00,
2013-03-02 02:25:00,38.6,33.0,30.13,North,32767,0.0,0.0,80,0.00,,,0.00,Wunderground v.1.15,2013-03-02 08:25:00,
2013-03-02 02:30:00,38.6,32.6,30.13,North,32767,0.0,0.0,79,0.00,,,0.00,Wunderground v.1.15,2013-03-02 08:30:00,
2013-03-02 02:35:00,38.6,32.6,30.12,North,32767,0.0,0.0,79,0.00,,,0.00,Wunderground v.1.15,2013-03-02 08:35:00,
2013-03-02 02:40:00,38.6,33.0,30.12,North,32767,0.0,0.0,80,0.00,,,0.00,Wunderground v.1.15,2013-03-02 08:40:00,
2013-03-02 02:45:00,38.6,32.6,30.12,North,32767,0.0,0.0,79,0.00,,,0.00,Wunderground v.1.15,2013-03-02 08:45:00,
2013-03-02 02:50:00,38.5,32.9,30.12,North,32767,0.0,0.0,80,0.00,,,0.00,Wunderground v.1.15,2013-03-02 08:50:00,
2013-03-02 02:55:00,38.4,32.8,30.12,North,32767,0.0,0.0,80,0.00,,,0.00,Wunderground v.1.15,2013-03-02 08:55:00,
2013-03-02 03:00:00,38.4,33.1,30.12,North,32767,0.0,0.0,81,0.00,,,0.00,Wunderground v.1.15,2013-03-02 09:00:00,
2013-03-02 03:05:00,38.2,32.9,30.12,North,32767,0.0,0.0,81,0.00,,,0.00,Wunderground v.1.15,2013-03-02 09:05:00,
2013-03-02 03:10:00,38.2,32.9,30.11,North,32767,0.0,0.0,81,0.00,,,0.00,Wunderground v.1.15,2013-03-02 09:10:00,
2013-03-02 03:15:00,38.1,32.8,30.11,North,32767,0.0,0.0,81,0.00,,,0.00,Wunderground v.1.15,2013-03-02 09:15:00,
2013-03-02 03:20:00,38.1,32.5,30.11,North,32767,0.0,0.0,80,0.00,,,0.00,Wunderground v.1.15,2013-03-02 09:20:00,
2013-03-02 03:25:00,38.1,32.2,30.12,North,32767,0.0,0.0,79,0.00,,,0.00,Wunderground v.1.15,2013-03-02 09:25:00,
2013-03-02 03:30:00,38.1,32.5,30.12,North,32767,0.0,0.0,80,0.00,,,0.00,Wunderground v.1.15,2013-03-02 09:30:00,
2013-03-02 03:35:00,38.0,32.4,30.12,North,32767,0.0,0.0,80,0.00,,,0.00,Wunderground v.1.15,2013-03-02 09:35:00,
2013-03-02 03:45:00,37.9,32.0,30.12,North,32767,0.0,0.0,79,0.00,,,0.00,Wunderground v.1.15,2013-03-02 09:45:00,
2013-03-02 03:50:00,37.8,32.2,30.12,North,32767,0.0,0.0,80,0.00,,,0.00,Wunderground v.1.15,2013-03-02 09:50:00,
2013-03-02 03:55:00,37.8,32.5,30.12,North,32767,0.0,0.0,81,0.00,,,0.00,Wunderground v.1.15,2013-03-02 09:55:00,
2013-03-02 04:00:00,37.7,31.8,30.12,North,32767,0.0,0.0,79,0.00,,,0.00,Wunderground v.1.15,2013-03-02 10:00:00,
2013-03-02 04:05:00,37.7,32.1,30.13,North,32767,0.0,0.0,80,0.00,,,0.00,Wunderground v.1.15,2013-03-02 10:05:00,
2013-03-02 04:10:00,37.7,31.8,30.13,North,32767,0.0,0.0,79,0.00,,,0.00,Wunderground v.1.15,2013-03-02 10:10:00,
2013-03-02 04:15:00,37.6,32.0,30.13,North,32767,0.0,0.0,80,0.00,,,0.00,Wunderground v.1.15,2013-03-02 10:15:00,
2013-03-02 04:20:00,37.7,31.8,30.13,North,32767,0.0,0.0,79,0.00,,,0.00,Wunderground v.1.15,2013-03-02 10:20:00,
2013-03-02 04:25:00,37.7,31.8,30.13,North,32767,0.0,0.0,79,0.00,,,0.00,Wunderground v.1.15,2013-03-02 10:25:00,
2013-03-02 04:30:00,37.7,32.1,30.13,North,32767,0.0,0.0,80,0.00,,,0.00,Wunderground v.1.15,2013-03-02 10:30:00,
2013-03-02 04:35:00,37.6,32.0,30.13,North,32767,0.0,0.0,80,0.00,,,0.00,Wunderground v.1.15,2013-03-02 10:35:00,
2013-03-02 04:40:00,37.5,31.6,30.13,North,32767,0.0,0.0,79,0.00,,,0.00,Wunderground v.1.15,2013-03-02 10:40:00,
2013-03-02 04:45:00,37.3,31.7,30.13,North,32767,0.0,0.0,80,0.00,,,0.00,Wunderground v.1.15,2013-03-02 10:45:00,
2013-03-02 04:50:00,37.1,31.8,30.13,North,32767,0.0,0.0,81,0.00,,,0.00,Wunderground v.1.15,2013-03-02 10:50:00,
2013-03-02 04:55:00,36.9,32.2,30.13,North,32767,0.0,0.0,83,0.00,,,0.00,Wunderground v.1.15,2013-03-02 10:55:00,
2013-03-02 05:00:00,36.8,31.8,30.14,North,32767,0.0,0.0,82,0.00,,,0.00,Wunderground v.1.15,2013-03-02 11:00:00,
2013-03-02 05:05:00,36.6,32.2,30.14,North,32767,0.0,0.0,84,0.00,,,0.00,Wunderground v.1.15,2013-03-02 11:05:00,
2013-03-02 05:10:00,36.4,32.0,30.14,North,32767,0.0,0.0,84,0.00,,,0.00,Wunderground v.1.15,2013-03-02 11:10:00,
2013-03-02 05:15:00,36.2,32.1,30.14,North,32767,0.0,0.0,85,0.00,,,0.00,Wunderground v.1.15,2013-03-02 11:15:00,
2013-03-02 05:20:00,36.0,32.2,30.14,North,32767,0.0,0.0,86,0.00,,,0.00,Wunderground v.1.15,2013-03-02 11:20:00,
2013-03-02 05:25:00,35.8,32.3,30.14,North,32767,0.0,0.0,87,0.00,,,0.00,Wunderground v.1.15,2013-03-02 11:25:00,
2013-03-02 05:30:00,35.5,32.3,30.15,North,32767,0.0,0.0,88,0.00,,,0.00,Wunderground v.1.15,2013-03-02 11:30:00,
2013-03-02 05:35:00,35.3,32.4,30.15,North,32767,0.0,0.0,89,0.00,,,0.00,Wunderground v.1.15,2013-03-02 11:35:00,
2013-03-02 05:40:00,35.1,32.5,30.15,North,32767,0.0,0.0,90,0.00,,,0.00,Wunderground v.1.15,2013-03-02 11:40:00,
2013-03-02 05:45:00,35.0,32.6,30.15,North,32767,0.0,0.0,91,0.00,,,0.00,Wunderground v.1.15,2013-03-02 11:45:00,
2013-03-02 05:50:00,34.8,32.4,30.15,North,32767,0.0,0.0,91,0.00,,,0.00,Wunderground v.1.15,2013-03-02 11:50:00,
2013-03-02 05:55:00,34.6,32.2,30.15,North,32767,0.0,0.0,91,0.00,,,0.00,Wunderground v.1.15,2013-03-02 11:55:00,
2013-03-02 06:00:00,34.4,32.3,30.15,North,32767,0.0,0.0,92,0.00,,,0.00,Wunderground v.1.15,2013-03-02 12:00:00,
2013-03-02 06:05:00,34.2,32.1,30.16,North,32767,0.0,0.0,92,0.00,,,0.00,Wunderground v.1.15,2013-03-02 12:05:00,
2013-03-02 06:15:00,34.0,32.2,30.16,North,32767,0.0,0.0,93,0.00,,,0.00,Wunderground v.1.15,2013-03-02 12:15:00,
2013-03-02 06:25:00,33.8,32.3,30.16,North,32767,0.0,0.0,94,0.00,,,0.00,Wunderground v.1.15,2013-03-02 12:25:00,
2013-03-02 06:30:00,33.8,32.3,30.16,North,32767,0.0,0.0,94,0.00,,,0.00,Wunderground v.1.15,2013-03-02 12:30:00,
2013-03-02 06:35:00,33.7,32.2,30.16,North,32767,0.0,0.0,94,0.00,,,0.00,Wunderground v.1.15,2013-03-02 12:35:00,
2013-03-02 06:40:00,33.8,32.3,30.17,North,32767,0.0,0.0,94,0.00,,,0.00,Wunderground v.1.15,2013-03-02 12:40:00,
2013-03-02 06:45:00,34.0,32.5,30.17,North,32767,0.0,0.0,94,0.00,,,0.00,Wunderground v.1.15,2013-03-02 12:45:00,
2013-03-02 06:50:00,34.4,32.9,30.17,North,32767,0.0,0.0,94,0.00,,,0.00,Wunderground v.1.15,2013-03-02 12:50:00,
2013-03-02 06:55:00,35.0,33.2,30.17,North,32767,0.0,0.0,93,0.00,,,0.00,Wunderground v.1.15,2013-03-02 12:55:00,
2013-03-02 07:00:00,35.6,33.2,30.17,North,32767,0.0,0.0,91,0.00,,,0.00,Wunderground v.1.15,2013-03-02 13:00:00,
2013-03-02 07:05:00,36.2,33.5,30.17,North,32767,0.0,0.0,90,0.00,,,0.00,Wunderground v.1.15,2013-03-02 13:05:00,
2013-03-02 07:10:00,36.7,33.8,30.17,North,32767,0.0,0.0,89,0.00,,,0.00,Wunderground v.1.15,2013-03-02 13:10:00,
2013-03-02 07:15:00,37.1,33.6,30.17,North,32767,0.0,0.0,87,0.00,,,0.00,Wunderground v.1.15,2013-03-02 13:15:00,
2013-03-02 07:20:00,37.5,34.0,30.18,North,32767,0.0,0.0,87,0.00,,,0.00,Wunderground v.1.15,2013-03-02 13:20:00,
2013-03-02 07:25:00,37.9,34.1,30.18,North,32767,0.0,0.0,86,0.00,,,0.00,Wunderground v.1.15,2013-03-02 13:25:00,
2013-03-02 07:30:00,38.4,34.6,30.18,North,32767,0.0,0.0,86,0.00,,,0.00,Wunderground v.1.15,2013-03-02 13:30:00,
2013-03-02 07:35:00,38.9,34.8,30.19,North,32767,0.0,0.0,85,0.00,,,0.00,Wunderground v.1.15,2013-03-02 13:35:00,
2013-03-02 07:40:00,39.5,35.1,30.19,North,32767,0.0,0.0,84,0.00,,,0.00,Wunderground v.1.15,2013-03-02 13:40:00,
2013-03-02 07:45:00,40.0,35.3,30.19,North,32767,0.0,0.0,83,0.00,,,0.00,Wunderground v.1.15,2013-03-02 13:45:00,
2013-03-02 07:50:00,40.7,35.9,30.19,North,32767,0.0,0.0,83,0.00,,,0.00,Wunderground v.1.15,2013-03-02 13:50:00,
2013-03-02 07:55:00,41.5,36.4,30.19,North,32767,0.0,0.0,82,0.00,,,0.00,Wunderground v.1.15,2013-03-02 13:55:00,
2013-03-02 08:00:00,42.2,36.2,30.19,North,32767,0.0,0.0,79,0.00,,,0.00,Wunderground v.1.15,2013-03-02 14:00:00,
2013-03-02 08:05:00,42.8,36.7,30.19,North,32767,0.0,0.0,79,0.00,,,0.00,Wunderground v.1.15,2013-03-02 14:05:00,
2013-03-02 08:10:00,43.4,37.0,30.19,North,32767,0.0,0.0,78,0.00,,,0.00,Wunderground v.1.15,2013-03-02 14:10:00,
2013-03-02 08:15:00,44.2,37.1,30.19,North,32767,0.0,0.0,76,0.00,,,0.00,Wunderground v.1.15,2013-03-02 14:15:00,
2013-03-02 08:20:00,44.5,37.1,30.19,North,32767,0.0,0.0,75,0.00,,,0.00,Wunderground v.1.15,2013-03-02 14:20:00,
2013-03-02 08:25:00,44.9,36.8,30.19,North,32767,0.0,0.0,73,0.00,,,0.00,Wunderground v.1.15,2013-03-02 14:25:00,
2013-03-02 08:30:00,45.6,37.1,30.19,North,32767,0.0,0.0,72,0.00,,,0.00,Wunderground v.1.15,2013-03-02 14:30:00,
2013-03-02 08:35:00,46.3,36.7,30.19,North,32767,0.0,0.0,69,0.00,,,0.00,Wunderground v.1.15,2013-03-02 14:35:00,
2013-03-02 08:40:00,46.7,37.1,30.19,North,32767,0.0,0.0,69,0.00,,,0.00,Wunderground v.1.15,2013-03-02 14:40:00,
2013-03-02 08:45:00,46.7,36.3,30.19,North,32767,0.0,0.0,67,0.00,,,0.00,Wunderground v.1.15,2013-03-02 14:45:00,
2013-03-02 08:50:00,46.5,35.4,30.19,North,32767,0.0,0.0,65,0.00,,,0.00,Wunderground v.1.15,2013-03-02 14:50:00,
2013-03-02 08:55:00,46.1,35.4,30.19,North,32767,0.0,0.0,66,0.00,,,0.00,Wunderground v.1.15,2013-03-02 14:55:00,
2013-03-02 09:00:00,46.3,35.6,30.19,North,32767,0.0,0.0,66,0.00,,,0.00,Wunderground v.1.15,2013-03-02 15:00:00,
2013-03-02 09:05:00,46.7,36.3,30.19,North,32767,0.0,0.0,67,0.00,,,0.00,Wunderground v.1.15,2013-03-02 15:05:00,
2013-03-02 09:10:00,46.9,35.7,30.18,North,32767,0.0,0.0,65,0.00,,,0.00,Wunderground v.1.15,2013-03-02 15:10:00,
2013-03-02 09:15:00,47.3,36.1,30.18,North,32767,0.0,0.0,65,0.00,,,0.00,Wunderground v.1.15,2013-03-02 15:15:00,
2013-03-02 09:20:00,47.6,36.4,30.18,North,32767,0.0,0.0,65,0.00,,,0.00,Wunderground v.1.15,2013-03-02 15:20:00,
2013-03-02 09:25:00,47.9,35.5,30.18,North,32767,0.0,0.0,62,0.00,,,0.00,Wunderground v.1.15,2013-03-02 15:25:00,
2013-03-02 09:30:00,48.1,36.1,30.18,North,32767,0.0,0.0,63,0.00,,,0.00,Wunderground v.1.15,2013-03-02 15:30:00,
2013-03-02 09:35:00,48.1,34.9,30.18,North,32767,0.0,0.0,60,0.00,,,0.00,Wunderground v.1.15,2013-03-02 15:35:00,
2013-03-02 09:40:00,48.0,34.8,30.18,North,32767,0.0,0.0,60,0.00,,,0.00,Wunderground v.1.15,2013-03-02 15:40:00,
2013-03-02 09:45:00,48.5,35.2,30.18,North,32767,0.0,0.0,60,0.00,,,0.00,Wunderground v.1.15,2013-03-02 15:45:00,
2013-03-02 09:55:00,49.1,36.2,30.18,North,32767,0.0,0.0,61,0.00,,,0.00,Wunderground v.1.15,2013-03-02 15:55:00,
2013-03-02 10:00:00,49.1,36.2,30.17,North,32767,0.0,0.0,61,0.00,,,0.00,Wunderground v.1.15,2013-03-02 16:00:00,
2013-03-02 10:05:00,49.6,36.7,30.17,North,32767,0.0,0.0,61,0.00,,,0.00,Wunderground v.1.15,2013-03-02 16:05:00,
2013-03-02 10:10:00,50.0,37.5,30.17,North,32767,0.0,0.0,62,0.00,,,0.00,Wunderground v.1.15,2013-03-02 16:10:00,
2013-03-02 10:15:00,50.2,36.8,30.17,North,32767,0.0,0.0,60,0.00,,,0.00,Wunderground v.1.15,2013-03-02 16:15:00,
2013-03-02 10:20:00,50.3,36.1,30.17,North,32767,0.0,0.0,58,0.00,,,0.00,Wunderground v.1.15,2013-03-02 16:20:00,
2013-03-02 10:25:00,49.8,36.9,30.16,North,32767,0.0,0.0,61,0.00,,,0.00,Wunderground v.1.15,2013-03-02 16:25:00,
2013-03-02 10:30:00,49.9,36.1,30.16,North,32767,0.0,0.0,59,0.00,,,0.00,Wunderground v.1.15,2013-03-02 16:30:00,
2013-03-02 10:40:00,49.9,36.6,30.16,North,32767,0.0,0.0,60,0.00,,,0.00,Wunderground v.1.15,2013-03-02 16:40:00,
2013-03-02 10:45:00,50.3,36.5,30.16,North,32767,0.0,0.0,59,0.00,,,0.00,Wunderground v.1.15,2013-03-02 16:45:00,
2013-03-02 10:50:00,50.6,35.9,30.16,North,32767,0.0,0.0,57,0.00,,,0.00,Wunderground v.1.15,2013-03-02 16:50:00,
2013-03-02 10:55:00,51.0,36.3,30.16,North,32767,0.0,0.0,57,0.00,,,0.00,Wunderground v.1.15,2013-03-02 16:55:00,
2013-03-02 11:00:00,51.5,38.5,30.15,North,32767,0.0,0.0,61,0.00,,,0.00,Wunderground v.1.15,2013-03-02 17:00:00,
2013-03-02 11:05:00,51.8,37.5,30.16,North,32767,0.0,0.0,58,0.00,,,0.00,Wunderground v.1.15,2013-03-02 17:05:00,
2013-03-02 11:10:00,51.6,36.4,30.15,North,32767,0.0,0.0,56,0.00,,,0.00,Wunderground v.1.15,2013-03-02 17:10:00,
2013-03-02 11:15:00,51.2,37.4,30.15,North,32767,0.0,0.0,59,0.00,,,0.00,Wunderground v.1.15,2013-03-02 17:15:00,
2013-03-02 11:20:00,50.9,36.2,30.15,North,32767,0.0,0.0,57,0.00,,,0.00,Wunderground v.1.15,2013-03-02 17:20:00,
2013-03-02 11:25:00,50.1,36.7,30.15,North,32767,0.0,0.0,60,0.00,,,0.00,Wunderground v.1.15,2013-03-02 17:25:00,
2013-03-02 11:30:00,50.5,36.3,30.15,North,32767,0.0,0.0,58,0.00,,,0.00,Wunderground v.1.15,2013-03-02 17:30:00,
2013-03-02 11:35:00,51.1,38.5,30.15,North,32767,0.0,0.0,62,0.00,,,0.00,Wunderground v.1.15,2013-03-02 17:35:00,
2013-03-02 11:40:00,52.0,37.7,30.15,North,32767,0.0,0.0,58,0.00,,,0.00,Wunderground v.1.15,2013-03-02 17:40:00,
2013-03-02 11:45:00,52.2,37.4,30.15,North,32767,0.0,0.0,57,0.00,,,0.00,Wunderground v.1.15,2013-03-02 17:45:00,
2013-03-02 11:50:00,51.5,36.3,30.14,North,32767,0.0,0.0,56,0.00,,,0.00,Wunderground v.1.15,2013-03-02 17:50:00,
2013-03-02 11:55:00,51.3,37.0,30.14,North,32767,0.0,0.0,58,0.00,,,0.00,Wunderground v.1.15,2013-03-02 17:55:00,
2013-03-02 12:00:00,51.6,38.2,30.14,North,32767,0.0,0.0,60,0.00,,,0.00,Wunderground v.1.15,2013-03-02 18:00:00,
2013-03-02 12:05:00,52.3,38.0,30.13,North,32767,0.0,0.0,58,0.00,,,0.00,Wunderground v.1.15,2013-03-02 18:05:00,
2013-03-02 12:10:00,52.3,37.5,30.13,North,32767,0.0,0.0,57,0.00,,,0.00,Wunderground v.1.15,2013-03-02 18:10:00,
2013-03-02 12:15:00,52.0,36.8,30.13,North,32767,0.0,0.0,56,0.00,,,0.00,Wunderground v.1.15,2013-03-02 18:15:00,
2013-03-02 12:20:00,51.6,36.9,30.13,North,32767,0.0,0.0,57,0.00,,,0.00,Wunderground v.1.15,2013-03-02 18:20:00,
2013-03-02 12:25:00,51.9,36.7,30.12,North,32767,0.0,0.0,56,0.00,,,0.00,Wunderground v.1.15,2013-03-02 18:25:00,
2013-03-02 12:30:00,52.7,37.9,30.12,North,32767,0.0,0.0,57,0.00,,,0.00,Wunderground v.1.15,2013-03-02 18:30:00,
2013-03-02 12:35:00,52.8,36.6,30.12,North,32767,0.0,0.0,54,0.00,,,0.00,Wunderground v.1.15,2013-03-02 18:35:00,
2013-03-02 12:40:00,52.4,37.6,30.11,North,32767,0.0,0.0,57,0.00,,,0.00,Wunderground v.1.15,2013-03-02 18:40:00,
2013-03-02 12:45:00,53.0,38.2,30.11,North,32767,0.0,0.0,57,0.00,,,0.00,Wunderground v.1.15,2013-03-02 18:45:00,
2013-03-02 12:50:00,53.6,38.3,30.11,North,32767,0.0,0.0,56,0.00,,,0.00,Wunderground v.1.15,2013-03-02 18:50:00,
2013-03-02 12:55:00,53.2,37.4,30.11,North,32767,0.0,0.0,55,0.00,,,0.00,Wunderground v.1.15,2013-03-02 18:55:00,
2013-03-02 13:00:00,51.9,36.2,30.10,North,32767,0.0,0.0,55,0.00,,,0.00,Wunderground v.1.15,2013-03-02 19:00:00,
2013-03-02 13:05:00,50.7,35.6,30.10,North,32767,0.0,0.0,56,0.00,,,0.00,Wunderground v.1.15,2013-03-02 19:05:00,
2013-03-02 13:10:00,50.1,35.9,30.10,North,32767,0.0,0.0,58,0.00,,,0.00,Wunderground v.1.15,2013-03-02 19:10:00,
2013-03-02 13:15:00,49.7,36.4,30.10,North,32767,0.0,0.0,60,0.00,,,0.00,Wunderground v.1.15,2013-03-02 19:15:00,
2013-03-02 13:20:00,49.7,36.8,30.10,North,32767,0.0,0.0,61,0.00,,,0.00,Wunderground v.1.15,2013-03-02 19:20:00,
2013-03-02 13:25:00,49.8,36.0,30.10,North,32767,0.0,0.0,59,0.00,,,0.00,Wunderground v.1.15,2013-03-02 19:25:00,
2013-03-02 13:30:00,50.8,37.4,30.10,North,32767,0.0,0.0,60,0.00,,,0.00,Wunderground v.1.15,2013-03-02 19:30:00,
2013-03-02 13:35:00,51.1,35.9,30.10,North,32767,0.0,0.0,56,0.00,,,0.00,Wunderground v.1.15,2013-03-02 19:35:00,
2013-03-02 13:40:00,50.1,35.4,30.10,North,32767,0.0,0.0,57,0.00,,,0.00,Wunderground v.1.15,2013-03-02 19:40:00,
2013-03-02 13:45:00,49.0,35.3,30.10,North,32767,0.0,0.0,59,0.00,,,0.00,Wunderground v.1.15,2013-03-02 19:45:00,
2013-03-02 13:50:00,48.5,35.2,30.10,North,32767,0.0,0.0,60,0.00,,,0.00,Wunderground v.1.15,2013-03-02 19:50:00,
2013-03-02 13:55:00,48.5,36.1,30.10,North,32767,0.0,0.0,62,0.00,,,0.00,Wunderground v.1.15,2013-03-02 19:55:00,
2013-03-02 14:00:00,48.5,36.1,30.10,North,32767,0.0,0.0,62,0.00,,,0.00,Wunderground v.1.15,2013-03-02 20:00:00,
2013-03-02 14:05:00,48.4,35.6,30.10,North,32767,0.0,0.0,61,0.00,,,0.00,Wunderground v.1.15,2013-03-02 20:05:00,
2013-03-02 14:15:00,48.2,35.4,30.10,North,32767,0.0,0.0,61,0.00,,,0.00,Wunderground v.1.15,2013-03-02 20:15:00,
2013-03-02 14:20:00,48.3,35.5,30.10,North,32767,0.0,0.0,61,0.00,,,0.00,Wunderground v.1.15,2013-03-02 20:20:00,
2013-03-02 14:25:00,48.7,35.0,30.10,North,32767,0.0,0.0,59,0.00,,,0.00,Wunderground v.1.15,2013-03-02 20:25:00,
2013-03-02 14:30:00,48.7,35.4,30.10,North,32767,0.0,0.0,60,0.00,,,0.00,Wunderground v.1.15,2013-03-02 20:30:00,
2013-03-02 14:35:00,48.7,35.4,30.10,North,32767,0.0,0.0,60,0.00,,,0.00,Wunderground v.1.15,2013-03-02 20:35:00,
2013-03-02 14:40:00,48.5,34.8,30.10,North,32767,0.0,0.0,59,0.00,,,0.00,Wunderground v.1.15,2013-03-02 20:40:00,
2013-03-02 14:45:00,48.1,34.9,30.09,North,32767,0.0,0.0,60,0.00,,,0.00,Wunderground v.1.15,2013-03-02 20:45:00,
2013-03-02 14:50:00,48.0,34.8,30.09,North,32767,0.0,0.0,60,0.00,,,0.00,Wunderground v.1.15,2013-03-02 20:50:00,
2013-03-02 14:55:00,48.1,34.9,30.09,North,32767,0.0,0.0,60,0.00,,,0.00,Wunderground v.1.15,2013-03-02 20:55:00,
2013-03-02 15:00:00,47.9,34.3,30.09,North,32767,0.0,0.0,59,0.00,,,0.00,Wunderground v.1.15,2013-03-02 21:00:00,
2013-03-02 15:05:00,47.7,34.1,30.10,North,32767,0.0,0.0,59,0.00,,,0.00,Wunderground v.1.15,2013-03-02 21:05:00,
2013-03-02 15:10:00,47.5,34.3,30.10,North,32767,0.0,0.0,60,0.00,,,0.00,Wunderground v.1.15,2013-03-02 21:10:00,
2013-03-02 15:15:00,47.0,33.8,30.09,North,32767,0.0,0.0,60,0.00,,,0.00,Wunderground v.1.15,2013-03-02 21:15:00,
2013-03-02 15:20:00,46.8,34.0,30.09,North,32767,0.0,0.0,61,0.00,,,0.00,Wunderground v.1.15,2013-03-02 21:20:00,
2013-03-02 15:25:00,46.9,34.1,30.10,North,32767,0.0,0.0,61,0.00,,,0.00,Wunderground v.1.15,2013-03-02 21:25:00,
2013-03-02 15:30:00,46.8,33.2,30.10,North,32767,0.0,0.0,59,0.00,,,0.00,Wunderground v.1.15,2013-03-02 21:30:00,
2013-03-02 15:35:00,46.6,33.9,30.10,North,32767,0.0,0.0,61,0.00,,,0.00,Wunderground v.1.15,2013-03-02 21:35:00,
2013-03-02 15:40:00,46.4,33.7,30.10,North,32767,0.0,0.0,61,0.00,,,0.00,Wunderground v.1.15,2013-03-02 21:40:00,
2013-03-02 15:50:00,46.0,33.3,30.10,North,32767,0.0,0.0,61,0.00,,,0.00,Wunderground v.1.15,2013-03-02 21:50:00,
2013-03-02 15:55:00,45.7,33.8,30.10,North,32767,0.0,0.0,63,0.00,,,0.00,Wunderground v.1.15,2013-03-02 21:55:00,
2013-03-02 16:00:00,45.7,33.8,30.11,North,32767,0.0,0.0,63,0.00,,,0.00,Wunderground v.1.15,2013-03-02 22:00:00,
2013-03-02 16:05:00,45.5,33.2,30.11,North,32767,0.0,0.0,62,0.00,,,0.00,Wunderground v.1.15,2013-03-02 22:05:00,
2013-03-02 16:10:00,45.3,33.4,30.11,North,32767,0.0,0.0,63,0.00,,,0.00,Wunderground v.1.15,2013-03-02 22:10:00,
2013-03-02 16:15:00,45.2,33.7,30.11,North,32767,0.0,0.0,64,0.00,,,0.00,Wunderground v.1.15,2013-03-02 22:15:00,
2013-03-02 16:20:00,45.1,33.6,30.11,North,32767,0.0,0.0,64,0.00,,,0.00,Wunderground v.1.15,2013-03-02 22:20:00,
2013-03-02 16:25:00,44.8,33.0,30.11,North,32767,0.0,0.0,63,0.00,,,0.00,Wunderground v.1.15,2013-03-02 22:25:00,
2013-03-02 16:30:00,44.6,32.8,30.11,North,32767,0.0,0.0,63,0.00,,,0.00,Wunderground v.1.15,2013-03-02 22:30:00,
2013-03-02 16:35:00,44.4,33.0,30.12,North,32767,0.0,0.0,64,0.00,,,0.00,Wunderground v.1.15,2013-03-02 22:35:00,
2013-03-02 16:40:00,44.4,33.0,30.12,North,32767,0.0,0.0,64,0.00,,,0.00,Wunderground v.1.15,2013-03-02 22:40:00,
2013-03-02 16:45:00,44.3,32.9,30.12,North,32767,0.0,0.0,64,0.00,,,0.00,Wunderground v.1.15,2013-03-02 22:45:00,
2013-03-02 16:50:00,44.2,32.0,30.12,North,32767,0.0,0.0,62,0.00,,,0.00,Wunderground v.1.15,2013-03-02 22:50:00,
2013-03-02 17:00:00,43.9,32.5,30.12,North,32767,0.0,0.0,64,0.00,,,0.00,Wunderground v.1.15,2013-03-02 23:00:00,
2013-03-02 17:05:00,43.8,32.8,30.12,North,32767,0.0,0.0,65,0.00,,,0.00,Wunderground v.1.15,2013-03-02 23:05:00,
2013-03-02 17:15:00,43.6,32.6,30.13,North,32767,0.0,0.0,65,0.00,,,0.00,Wunderground v.1.15,2013-03-02 23:15:00,
2013-03-02 17:25:00,43.3,31.9,30.13,North,32767,0.0,0.0,64,0.00,,,0.00,Wunderground v.1.15,2013-03-02 23:25:00,
2013-03-02 17:30:00,43.2,32.2,30.14,North,32767,0.0,0.0,65,0.00,,,0.00,Wunderground v.1.15,2013-03-02 23:30:00,
2013-03-02 17:35:00,43.1,32.5,30.13,North,32767,0.0,0.0,66,0.00,,,0.00,Wunderground v.1.15,2013-03-02 23:35:00,
2013-03-02 17:40:00,43.0,32.4,30.14,North,32767,0.0,0.0,66,0.00,,,0.00,Wunderground v.1.15,2013-03-02 23:40:00,
2013-03-02 17:45:00,42.9,31.9,30.14,North,32767,0.0,0.0,65,0.00,,,0.00,Wunderground v.1.15,2013-03-02 23:45:00,
2013-03-02 17:50:00,42.7,31.7,30.14,North,32767,0.0,0.0,65,0.00,,,0.00,Wunderground v.1.15,2013-03-02 23:50:00,
2013-03-02 17:55:00,42.6,31.7,30.15,North,32767,0.0,0.0,65,0.00,,,0.00,Wunderground v.1.15,2013-03-02 23:55:00,
2013-03-02 18:00:00,42.5,31.6,30.15,North,32767,0.0,0.0,65,0.00,,,0.00,Wunderground v.1.15,2013-03-03 00:00:00,
2013-03-02 18:05:00,42.4,31.8,30.16,North,32767,0.0,0.0,66,0.00,,,0.00,Wunderground v.1.15,2013-03-03 00:05:00,
2013-03-02 18:15:00,42.2,31.6,30.16,North,32767,0.0,0.0,66,0.00,,,0.00,Wunderground v.1.15,2013-03-03 00:15:00,
2013-03-02 18:20:00,42.1,31.6,30.16,North,32767,0.0,0.0,66,0.00,,,0.00,Wunderground v.1.15,2013-03-03 00:20:00,
2013-03-02 18:25:00,42.0,31.5,30.16,North,32767,0.0,0.0,66,0.00,,,0.00,Wunderground v.1.15,2013-03-03 00:25:00,
2013-03-02 18:30:00,41.9,31.7,30.16,North,32767,0.0,0.0,67,0.00,,,0.00,Wunderground v.1.15,2013-03-03 00:30:00,
2013-03-02 18:35:00,41.8,31.6,30.17,North,32767,0.0,0.0,67,0.00,,,0.00,Wunderground v.1.15,2013-03-03 00:35:00,
2013-03-02 18:40:00,41.8,32.0,30.17,North,32767,0.0,0.0,68,0.00,,,0.00,Wunderground v.1.15,2013-03-03 00:40:00,
2013-03-02 18:45:00,41.8,32.0,30.17,North,32767,0.0,0.0,68,0.00,,,0.00,Wunderground v.1.15,2013-03-03 00:45:00,
2013-03-02 18:50:00,41.8,32.4,30.17,North,32767,0.0,0.0,69,0.00,,,0.00,Wunderground v.1.15,2013-03-03 00:50:00,
2013-03-02 18:55:00,41.7,31.9,30.17,North,32767,0.0,0.0,68,0.00,,,0.00,Wunderground v.1.15,2013-03-03 00:55:00,
2013-03-02 19:00:00,41.6,32.2,30.17,North,32767,0.0,0.0,69,0.00,,,0.00,Wunderground v.1.15,2013-03-03 01:00:00,
2013-03-02 19:05:00,41.4,31.6,30.18,North,32767,0.0,0.0,68,0.00,,,0.00,Wunderground v.1.15,2013-03-03 01:05:00,
2013-03-02 19:10:00,41.4,31.6,30.18,North,32767,0.0,0.0,68,0.00,,,0.00,Wunderground v.1.15,2013-03-03 01:10:00,
2013-03-02 19:15:00,41.3,31.9,30.18,North,32767,0.0,0.0,69,0.00,,,0.00,Wunderground v.1.15,2013-03-03 01:15:00,
2013-03-02 19:20:00,41.3,32.2,30.18,North,32767,0.0,0.0,70,0.00,,,0.00,Wunderground v.1.15,2013-03-03 01:20:00,
2013-03-02 19:25:00,41.3,31.9,30.18,North,32767,0.0,0.0,69,0.00,,,0.00,Wunderground v.1.15,2013-03-03 01:25:00,
2013-03-02 19:30:00,41.3,32.2,30.18,North,32767,0.0,0.0,70,0.00,,,0.00,Wunderground v.1.15,2013-03-03 01:30:00,
2013-03-02 19:35:00,41.2,31.8,30.18,North,32767,0.0,0.0,69,0.00,,,0.00,Wunderground v.1.15,2013-03-03 01:35:00,
2013-03-02 19:40:00,41.2,31.8,30.18,North,32767,0.0,0.0,69,0.00,,,0.00,Wunderground v.1.15,2013-03-03 01:40:00,
2013-03-02 19:45:00,41.2,32.2,30.18,North,32767,0.0,0.0,70,0.00,,,0.00,Wunderground v.1.15,2013-03-03 01:45:00,
2013-03-02 19:50:00,41.1,32.1,30.18,North,32767,0.0,0.0,70,0.00,,,0.00,Wunderground v.1.15,2013-03-03 01:50:00,
2013-03-02 19:55:00,41.1,32.4,30.19,North,32767,0.0,0.0,71,0.00,,,0.00,Wunderground v.1.15,2013-03-03 01:55:00,
2013-03-02 20:00:00,41.1,32.4,30.19,North,32767,0.0,0.0,71,0.00,,,0.00,Wunderground v.1.15,2013-03-03 02:00:00,
2013-03-02 20:05:00,41.0,32.3,30.19,North,32767,0.0,0.0,71,0.00,,,0.00,Wunderground v.1.15,2013-03-03 02:05:00,
2013-03-02 20:10:00,41.0,32.3,30.19,North,32767,0.0,0.0,71,0.00,,,0.00,Wunderground v.1.15,2013-03-03 02:10:00,
2013-03-02 20:15:00,40.9,32.2,30.19,North,32767,0.0,0.0,71,0.00,,,0.00,Wunderground v.1.15,2013-03-03 02:15:00,
2013-03-02 20:20:00,40.8,31.8,30.19,North,32767,0.0,0.0,70,0.00,,,0.00,Wunderground v.1.15,2013-03-03 02:20:00,
2013-03-02 20:25:00,40.7,32.0,30.19,North,32767,0.0,0.0,71,0.00,,,0.00,Wunderground v.1.15,2013-03-03 02:25:00,
2013-03-02 20:30:00,40.6,31.9,30.20,North,32767,0.0,0.0,71,0.00,,,0.00,Wunderground v.1.15,2013-03-03 02:30:00,
2013-03-02 20:35:00,40.6,31.9,30.20,North,32767,0.0,0.0,71,0.00,,,0.00,Wunderground v.1.15,2013-03-03 02:35:00,
2013-03-02 20:40:00,40.5,32.2,30.20,North,32767,0.0,0.0,72,0.00,,,0.00,Wunderground v.1.15,2013-03-03 02:40:00,
2013-03-02 20:45:00,40.5,32.2,30.20,North,32767,0.0,0.0,72,0.00,,,0.00,Wunderground v.1.15,2013-03-03 02:45:00,
2013-03-02 20:55:00,40.4,32.1,30.20,North,32767,0.0,0.0,72,0.00,,,0.00,Wunderground v.1.15,2013-03-03 02:55:00,
2013-03-02 21:00:00,40.3,32.0,30.20,North,32767,0.0,0.0,72,0.00,,,0.00,Wunderground v.1.15,2013-03-03 03:00:00,
2013-03-02 21:05:00,40.3,32.0,30.20,North,32767,0.0,0.0,72,0.00,,,0.00,Wunderground v.1.15,2013-03-03 03:05:00,
2013-03-02 21:10:00,40.3,32.0,30.21,North,32767,0.0,0.0,72,0.00,,,0.00,Wunderground v.1.15,2013-03-03 03:10:00,
2013-03-02 21:15:00,40.3,32.0,30.21,North,32767,0.0,0.0,72,0.00,,,0.00,Wunderground v.1.15,2013-03-03 03:15:00,
2013-03-02 21:20:00,40.3,31.6,30.21,North,32767,0.0,0.0,71,0.00,,,0.00,Wunderground v.1.15,2013-03-03 03:20:00,
2013-03-02 21:25:00,40.3,32.0,30.21,North,32767,0.0,0.0,72,0.00,,,0.00,Wunderground v.1.15,2013-03-03 03:25:00,
2013-03-02 21:30:00,40.2,31.5,30.21,North,32767,0.0,0.0,71,0.00,,,0.00,Wunderground v.1.15,2013-03-03 03:30:00,
2013-03-02 21:35:00,40.2,31.5,30.21,North,32767,0.0,0.0,71,0.00,,,0.00,Wunderground v.1.15,2013-03-03 03:35:00,
2013-03-02 21:40:00,40.2,31.5,30.21,North,32767,0.0,0.0,71,0.00,,,0.00,Wunderground v.1.15,2013-03-03 03:40:00,
2013-03-02 21:45:00,40.1,31.8,30.21,North,32767,0.0,0.0,72,0.00,,,0.00,Wunderground v.1.15,2013-03-03 03:45:00,
2013-03-02 21:50:00,40.0,31.0,30.22,North,32767,0.0,0.0,70,0.00,,,0.00,Wunderground v.1.15,2013-03-03 03:50:00,
2013-03-02 21:55:00,39.9,30.9,30.21,North,32767,0.0,0.0,70,0.00,,,0.00,Wunderground v.1.15,2013-03-03 03:55:00,
2013-03-02 22:00:00,39.8,30.5,30.21,North,32767,0.0,0.0,69,0.00,,,0.00,Wunderground v.1.15,2013-03-03 04:00:00,
2013-03-02 22:05:00,39.7,30.7,30.22,North,32767,0.0,0.0,70,0.00,,,0.00,Wunderground v.1.15,2013-03-03 04:05:00,
2013-03-02 22:10:00,39.6,30.6,30.22,North,32767,0.0,0.0,70,0.00,,,0.00,Wunderground v.1.15,2013-03-03 04:10:00,
2013-03-02 22:15:00,39.6,31.0,30.22,North,32767,0.0,0.0,71,0.00,,,0.00,Wunderground v.1.15,2013-03-03 04:15:00,
2013-03-02 22:20:00,39.6,31.0,30.22,North,32767,0.0,0.0,71,0.00,,,0.00,Wunderground v.1.15,2013-03-03 04:20:00,
2013-03-02 22:25:00,39.5,31.2,30.22,North,32767,0.0,0.0,72,0.00,,,0.00,Wunderground v.1.15,2013-03-03 04:25:00,
2013-03-02 22:30:00,39.6,31.3,30.22,North,32767,0.0,0.0,72,0.00,,,0.00,Wunderground v.1.15,2013-03-03 04:30:00,
2013-03-02 22:35:00,39.5,31.2,30.22,North,32767,0.0,0.0,72,0.00,,,0.00,Wunderground v.1.15,2013-03-03 04:35:00,
2013-03-02 22:40:00,39.5,31.6,30.21,North,32767,0.0,0.0,73,0.00,,,0.00,Wunderground v.1.15,2013-03-03 04:40:00,
2013-03-02 22:45:00,39.5,31.2,30.21,North,32767,0.0,0.0,72,0.00,,,0.00,Wunderground v.1.15,2013-03-03 04:45:00,
2013-03-02 22:50:00,39.4,31.1,30.21,North,32767,0.0,0.0,72,0.00,,,0.00,Wunderground v.1.15,2013-03-03 04:50:00,
2013-03-02 22:55:00,39.3,31.0,30.21,North,32767,0.0,0.0,72,0.00,,,0.00,Wunderground v.1.15,2013-03-03 04:55:00,
2013-03-02 23:00:00,39.3,31.0,30.21,North,32767,0.0,0.0,72,0.00,,,0.00,Wunderground v.1.15,2013-03-03 05:00:00,
2013-03-02 23:05:00,39.2,30.9,30.20,North,32767,0.0,0.0,72,0.00,,,0.00,Wunderground v.1.15,2013-03-03 05:05:00,
2013-03-02 23:10:00,39.2,31.3,30.20,North,32767,0.0,0.0,73,0.00,,,0.00,Wunderground v.1.15,2013-03-03 05:10:00,
2013-03-02 23:15:00,39.2,30.9,30.20,North,32767,0.0,0.0,72,0.00,,,0.00,Wunderground v.1.15,2013-03-03 05:15:00,
2013-03-02 23:20:00,39.1,30.8,30.20,North,32767,0.0,0.0,72,0.00,,,0.00,Wunderground v.1.15,2013-03-03 05:20:00,
2013-03-02 23:30:00,39.0,30.7,30.20,North,32767,0.0,0.0,72,0.00,,,0.00,Wunderground v.1.15,2013-03-03 05:30:00,
2013-03-02 23:35:00,38.9,30.6,30.20,North,32767,0.0,0.0,72,0.00,,,0.00,Wunderground v.1.15,2013-03-03 05:35:00,
2013-03-02 23:40:00,38.9,30.3,30.20,North,32767,0.0,0.0,71,0.00,,,0.00,Wunderground v.1.15,2013-03-03 05:40:00,
2013-03-02 23:45:00,38.8,30.5,30.20,North,32767,0.0,0.0,72,0.00,,,0.00,Wunderground v.1.15,2013-03-03 05:45:00,
2013-03-02 23:50:00,38.8,30.9,30.20,North,32767,0.0,0.0,73,0.00,,,0.00,Wunderground v.1.15,2013-03-03 05:50:00,
2013-03-02 23:55:00,38.8,30.5,30.20,North,32767,0.0,0.0,72,0.00,,,0.00,Wunderground v.1.15,2013-03-03 05:55:00,